Location: Ferma
(41.9500°N, 44.5167°E)
Time: 18:31:33
(UTC+00:00)

Radarsat Rocket - Pass Details

Date: 24 May 2022
Orbit: 933 x 1492 km, 100.6° (Epoch: 28 June)

Event Time Altitude Azimuth Distance (km) Brightness Sun altitude
Rises 16:52:24 0° 220° (SW) 4,582 7.6 -5.3°
Reaches altitude 10° 16:57:04 10° 243° (WSW) 3,633 7.4 -6.0°
Maximum altitude 17:01:19 14° 273° (W) 3,292 7.7 -6.7°
Drops below altitude 10° 17:05:34 10° 303° (WNW) 3,611 8.8 -7.3°
Sets 17:10:15 0° 327° (NNW) 4,535 9.1 -8.0°
